Retour au catalogue

FENGYUN 1C DEB

ActifSSO
NORAD 35156·DEBRIS·🇨🇳 China

Lancé May 10, 1999 depuis Taiyuan Satellite Launch Center

Loading…

Prochains Passages (prochaines 24 heures)

TLE

FraisSource: Space-Track

Époque: Sep 14, 2026, 10:22 UTC

1 35156U 99025DML 26257.43225544  .00000258  00000-0  16634-3 0  9994
2 35156  98.7788 242.1531 0037541  88.6674 271.8798 14.10916765679314

Suivez FENGYUN 1C DEB en temps réel avec AllMySat

Download on the App Store